Flag Weather past 2 weeks in Aschaffenburg, Bavaria, Germany

Now
45 °F

Fog.


Feels Like: 45 °F
Forecast: 46 / 60 °F
Wind: 1 mph from Northeast

Location: Frankfurt / M-Flughafen

Current Time: Nov 1, 2014 at 3:41:29 AM

Latest Report: Nov 1, 2014 at 3:00 AM


Visibility: 1 mi

Pressure: 30.24 "Hg

Humidity: 100%

Dew point: 45 °F

Location of AschaffenburgLocation

Historic Weather in Aschaffenburg — Graph

°F

Aschaffenburg temperature yesterday

Maximum temperature yesterday: 58 °F (at 3:00 PM)
Minimum temperature yesterday: 46 °F (at 6:00 AM)
Average temperature yesterday: 51 °F

Past Weeks' High & Low Weather Summary

 TemperatureHumidityPressure
High71 °F (Oct 19, 4:00 PM)100% (Oct 17, 4:00 AM)30.36 "Hg (Oct 17, 4:00 AM)
Low38 °F (Oct 24, 4:00 AM)61% (Oct 20, 4:00 PM)29.58 "Hg (Oct 21, 6:00 PM)
Average52 °F89%30.15 "Hg
* Reported Oct 17 3:00 AM — Nov 1 2:00 AM, Aschaffenburg, Weather by CustomWeather, © 2014

Note: Actual official high and low records may vary slightly from our data, if they occured in-between our weather recording intervals... More about our weather records

Advertising

Aschaffenburg weather history for previous 24 hours

 ConditionsComfort  
Time TempWeatherWind HumidityBarometerVisibility
2:00 AM
Nov 1
46 °FFog.2 mph100%30.25 "Hg3 mi
1:00 AM47 °FFog.1 mph100%30.26 "Hg3 mi
12:00 AM49 °FFog.1 mph100%30.26 "Hg4 mi
11:00 PM
Oct 31
49 °FFog.1 mph100%30.27 "Hg5 mi
9:00 PM51 °FFog.2 mph100%30.27 "Hg6 mi
8:00 PM51 °FFog.1 mph100%30.27 "Hg6 mi
7:00 PM52 °FPassing clouds.1 mph100%30.27 "Hg7 mi
6:00 PM53 °FOvercast.1 mph99%30.27 "Hg6 mi
5:00 PM56 °FOvercast.1 mph94%30.27 "Hg6 mi
3:00 PM58 °FOvercast.1 mph82%30.28 "Hg6 mi
2:00 PM57 °FOvercast.2 mph86%30.29 "Hg6 mi
1:00 PM56 °FLow clouds.N/A86%30.31 "Hg5 mi
12:00 PM53 °FCool.1 mph96%30.32 "HgN/A
11:00 AM52 °FFog.2 mph100%30.33 "Hg4 mi
9:00 AM47 °FFog.1 mph99%30.32 "Hg1 mi
8:00 AM48 °FFog.1 mph100%30.31 "Hg0 mi
7:00 AM48 °FFog.1 mph100%30.29 "Hg0 mi
6:00 AM46 °FFog.1 mph99%30.29 "Hg0 mi
5:00 AM47 °FFog.1 mph97%30.30 "Hg1 mi
3:00 AM50 °FFog.1 mph97%30.30 "Hg3 mi
Weather by CustomWeather, © 2014

See weather overviewHow to use our weather pages